Change the Weather History Date:

Wednesday, November 27, 2013

  Actual Average Record
Temperature  
Mean Temperature 50 °F -  
Max Temperature 55 °F 60 °F 71 °F (2003)
Min Temperature 46 °F 50 °F 46 °F (2004)
Degree Days  
Heating Degree Days 14    
Moisture  
Dew Point 39 °F    
Average Humidity 67    
Maximum Humidity 81    
Minimum Humidity 54    
Precipitation  
Precipitation 0.00 in - - ()
Sea Level Pressure  
Sea Level Pressure 30.14 in    
Wind  
Wind Speed 5 mph ()    
Max Wind Speed 8 mph    
Max Gust Speed -    
Visibility 6.2 miles    
Events      
Averages and records for this station are not official NWS values.
T = Trace of Precipitation, MM = Missing Value Source: Averaged Metar Reports

Daily Weather History Graph

Daily Weather History Graph

Search for Another Location

Airport or City:

Trip Planner

Search our weather history database for the weather conditions in past years. The results will help you decide how hot, cold, wet, or windy it might be!

Date:

Astronomy

Nov. 27, 2013 Rise Set
Actual Time 6:50 AM CET 4:39 PM CET
Civil Twilight 6:21 AM CET 5:07 PM CET
Nautical Twilight 5:49 AM CET 5:40 PM CET
Astronomical Twilight 5:17 AM CET 6:11 PM CET
Moon 12:41 AM CET (11/27) 1:02 PM CET (11/27)
Length of Visible Light 10h 45m
Length of Day
9h 48m
Waning Crescent, 34% of the Moon is Illuminated
Nov 27
Waning Crescent
Dec 3
New
Dec 9
First Quarter
Dec 17
Full
Dec 25
Last Quarter

Hourly Weather History & Observations

Time (CET) Temp. Windchill Dew Point Humidity Pressure Visibility Wind Dir Wind Speed Gust Speed Precip Events Conditions
5:50 AM 46.4 °F 43.5 °F 41.0 °F 81% 30.01 in 6.2 mi NNE 5.8 mph - N/A   Scattered Clouds
6:50 AM 46.4 °F 43.5 °F 41.0 °F 81% 30.04 in 6.2 mi NE 5.8 mph - N/A   Mostly Cloudy
7:50 AM 48.2 °F - 41.0 °F 76% 30.04 in 6.2 mi NE 3.5 mph - N/A   Mostly Cloudy
8:50 AM 50.0 °F - 42.8 °F 76% 30.06 in 6.2 mi NE 4.6 mph - N/A   Mostly Cloudy
9:50 AM 51.8 °F - 41.0 °F 67% 30.09 in 6.2 mi NE 4.6 mph - N/A   Mostly Cloudy
10:50 AM 53.6 °F - 37.4 °F 54% 30.09 in 6.2 mi ENE 4.6 mph - N/A   Scattered Clouds
11:50 AM 55.4 °F - 39.2 °F 54% 30.12 in 6.2 mi North 5.8 mph - N/A   Scattered Clouds
12:50 PM 55.4 °F - 41.0 °F 58% 30.12 in 6.2 mi North 8.1 mph - N/A   Scattered Clouds
1:50 PM 53.6 °F - 39.2 °F 58% 30.12 in 6.2 mi North 8.1 mph - N/A   Partly Cloudy
2:50 PM 55.4 °F - 39.2 °F 54% 30.12 in 6.2 mi NE 4.6 mph - N/A   Partly Cloudy
3:50 PM 51.8 °F - 42.8 °F 71% 30.12 in 6.2 mi North 8.1 mph - N/A   Scattered Clouds
4:50 PM 51.8 °F - 39.2 °F 62% 30.15 in 6.2 mi NE 5.8 mph - N/A   Scattered Clouds
5:50 PM 48.2 °F - 39.2 °F 71% 30.18 in 6.2 mi ENE 5.8 mph - N/A   Scattered Clouds
6:50 PM 48.2 °F - 37.4 °F 66% 30.21 in 6.2 mi ENE 5.8 mph - N/A   Scattered Clouds
7:50 PM 46.4 °F 44.3 °F 37.4 °F 71% 30.21 in 6.2 mi ENE 4.6 mph - N/A   Scattered Clouds
8:50 PM 46.4 °F 42.4 °F 37.4 °F 71% 30.24 in 6.2 mi ENE 8.1 mph - N/A   Scattered Clouds
9:50 PM 46.4 °F 42.9 °F 35.6 °F 66% 30.24 in 6.2 mi NE 6.9 mph - N/A   Scattered Clouds
10:50 PM 46.4 °F 42.9 °F 35.6 °F 66% 30.27 in 6.2 mi NE 6.9 mph - N/A   Scattered Clouds
11:50 PM 46.4 °F 42.4 °F 33.8 °F 62% 30.27 in 6.2 mi NE 8.1 mph - N/A   Scattered Clouds